{"data":{"norad_id":59632,"epoch":"2026-05-24T22:40:39.436896Z","epoch_age_seconds":82833,"freshness":"FRESH","line1":"1 59632U 24082B   26144.94490089  .00001292  00000+0  56491-4 0  9993","line2":"2 59632  43.0061  55.0464 0001389 246.1557 113.9149 15.27570719116679","mean_motion":15.27570719,"eccentricity":0.0001389,"inclination_deg":43.0061,"raan_deg":55.0464,"arg_perigee_deg":246.1557,"mean_anomaly_deg":113.9149,"bstar":5.6491e-5,"rev_number":11667,"period_min":94.267321446347,"perigee_km":482.1238642243,"apogee_km":484.02990944206,"semimajor_km":6861.2138868332,"source":"CELESTRAK","updated_at":"2026-05-25T13:38:19.012689Z"}}